Аэропорт
Владивосток (UHWW)

 UHWW / VVO
ЗЦ Хабаровск
Хабаровск (UHHH)
Хабаровск (UHHH)
 43.39900, 132.14800  / 46 ft

 UHWW 182230Z 00000MPS 9999 BKN046 13/13 Q1008 R25L/0///70 NOSIG RMK QFE755
 TAF UHWW 182000Z 1821/1921 33003MPS 9999 BKN025CB BECMG 1822/1823 25003MPS TEMPO 1823/1910 5000 -SHRA BKN017CB BECMG 1910/1912 34003MPS SCT030
UHWW_aip_1709, UHWW_j_0220
показать схемы
Название сценария Тип сценария Flight Simulator 9 Flight Simulator X Prepar3D v2 Prepar3D v3 Prepar3D v4 Prepar3D v5 xPlane
UHWW THE EAST GATE P3D4 платный
UHWW THE EAST GATE P3D5 платный
UHWW, Vladivostok 1.0.0 X-Flight бесплатный
UHWW, Vladivostok 2017 v 1.2 бесплатный
uhww-scenery-fs9-1408 бесплатный
uhww-scenery-fsx-1304 бесплатный
Vladivostok UHWW (P3Dv4.4+) бесплатный

 

Международный аэропорт Владивосток (Кневичи) имени В. К. Арсеньева (ИАТА: VVO, ИКАО: UHWW) — международный аэропорт (II категории ИКАО) имени В. К. Арсеньева. Аэропорт расположен западнее села Кневичи, в 2,5 км от города Артёма, и в 38 км северо-восточнее города Владивосток.

Имеются две взлётно-посадочные полосы с искусственным покрытием:

25Л/07П длиной 3500 м и шириной 60 м, прочность покрытия PCN 52/R/B/X/T (смешанная)

25П/07Л длиной 3500 м и шириной 60 м, прочность покрытия PCN 54/R/B/X/T - не используется

Принимаемые воздушные суда: все типы без ограничений.



2020 © VATRUS division (Privacy Policy)